Location: Clanezzo
(45.7500°N, 9.6000°E)
Time: 08:10:17
(UTC+00:00)

Gbstr 26 Del rocket - Pass Details

Date: 29 September 2021
Orbit: 492 x 1263 km, 51.8° (Epoch: 18 October)

Event Time Altitude Azimuth Distance (km) Brightness Sun altitude
Rises 19:09:18 0° 236° (SW) 3,797 7.6 -22.1°
Reaches altitude 10° 19:11:49 10° 235° (SW) 2,939 6.9 -22.5°
Maximum altitude 19:19:09 84° 148° (SSE) 1,218 4.3 -23.7°
Enters shadow 19:23:52 28° 63° (ENE) 2,147 5.4 -24.5°
